Location: Cheching
(60.0667°N, 164.2167°W)
Time: 12:59:14
(UTC+00:00)

MOZHAYETS 4 - Visible Passes

Search period start: 16 January 2021 00:00
Search period end: 26 January 2021 00:00
Orbit: 661 x 680 km, 98.1° (Epoch: 16 January)

Date Brightness Start Highest point End Pass type
(mag) Time Alt. Az. Time Alt. Az. Time Alt. Az.
16 Jan 9.5 03:48:29 10° N 03:52:19 27° NW 03:56:10 10° WSW visible
17 Jan 10.0 04:21:49 10° N 04:24:56 18° NW 04:28:04 10° W visible
18 Jan 10.3 04:55:25 10° NNW 04:57:27 13° NW 04:59:30 10° WNW visible
19 Jan 9.6 03:50:16 10° N 03:54:05 26° NW 03:57:55 10° WSW visible
20 Jan 10.0 04:23:37 10° N 04:26:42 18° NW 04:29:48 10° W visible
21 Jan 10.3 04:57:14 10° NNW 04:59:12 13° NW 05:01:11 10° WNW visible
22 Jan 9.6 03:52:03 10° N 03:55:51 26° NW 03:59:39 10° WSW visible
23 Jan 10.1 04:25:24 10° N 04:28:27 18° NW 04:31:31 10° W visible
24 Jan 10.3 04:59:03 10° NNW 05:00:57 12° NW 05:02:52 10° WNW visible
25 Jan 9.6 03:53:50 10° N 03:57:37 25° NW 04:01:23 10° WSW visible
